Temp
94 95 98 97 96 95 92 91 91 91 88 85 86 85 84 83 83 85 81 80 80 84 89 88 89 85 82 82 85 86 86 89 88
94 94 96 96 96 95 94 93 90 90 89 88 88 87 85 85 84 84 84 82 82 81 87 91 87 87 85 84 86 86 87 85 83
97 96 95 96 97 97 96 95 94 92 91 89 89 90 87 87 87 85 86 84 82 83 83 87 87 86 85 85 86 86 85 85 85
100 97 96 95 96 98 98 96 95 92 91 90 90 89 87 86 87 88 84 84 84 83 83 86 85 84 85 84 83 81 83 85 84
100 98 98 97 97 96 97 95 96 94 92 93 92 90 85 86 86 87 85 84 84 82 80 86 85 84 84 83 81 80 83 83 84
96 95 96 98 97 96 96 95 94 95 94 93 94 88 84 85 84 87 87 83 83 84 82 83 86 84 83 82 81 81 82 82 82
96 94 94 96 97 96 94 93 91 91 92 94 92 89 87 84 85 87 88 83 82 84 82 81 83 84 84 79 83 82 81 81 81
94 94 94 94 95 94 90 89 88 88 91 91 92 88 88 86 86 87 85 82 81 84 83 82 82 82 83 81 82 85 81 82 81
95 94 94 94 92 91 89 88 86 87 88 89 90 86 87 86 84 84 84 83 81 81 81 83 83 83 81 75 82 70 73 79 81
97 97 96 94 92 89 89 88 87 87 87 89 86 84 85 84 83 82 82 83 81 80 80 81 81 80 80 77 78 68 70 73 83
96 97 95 93 94 91 91 91 90 90 90 86 84 83 84 83 82 81 82 82 81 82 83 80 79 80 79 78 77 66 67 71 80
98 97 98 97 98 96 89 89 89 88 87 84 83 82 77 80 81 81 82 81 81 84 84 83 83 82 79 74 70 64 65 71 80
98 99 100 98 100 98 93 91 90 87 85 83 82 82 81 82 82 82 81 82 82 84 84 80 81 79 76 75 76 63 63 70 83
98 96 96 97 97 95 92 91 89 85 84 83 85 84 83 83 82 82 82 78 82 82 79 75 79 73 79 80 80 73 61 63 80
95 94 94 95 93 92 91 90 87 85 83 86 85 83 82 82 82 85 85 82 83 82 79 79 77 78 79 80 80 69 60 61 64
94 94 94 96 94 91 90 88 88 85 86 86 85 83 83 83 82 83 84 81 81 81 78 82 79 78 77 78 78 80 63 60 62
90 94 92 95 95 91 88 88 87 89 89 87 85 83 83 84 82 79 82 85 86 85 81 82 83 79 80 81 80 81 80 74 71
85 87 91 92 93 92 89 88 87 90 90 88 86 85 85 85 85 81 82 85 88 87 85 83 85 87 86 80 81 84 76 75 80
81 81 84 86 89 88 89 88 87 88 91 88 89 87 88 89 89 86 86 84 86 63 64 61 60 59 75 88 68 59 58 56 56
74 81 80 79 81 85 82 75 78 84 89 89 87 89 90 91 86 91 88 87 85 83 71 55 53 53 56 55 59 53 53 53 51
MSLP
1001.72 1002.15 1002.67 1003.54 1004.67 1005.84 1007.34 1008.47 1009.37 1010.21 1011.23 1012.08 1012.80 1013.52 1014.05 1014.60 1015.14 1015.30 1015.82 1016.24 1016.61 1016.12 1015.77 1016.07 1016.25 1017.05 1017.56 1017.55 1017.52 1017.57 1017.61 1017.58 1017.72
1001.05 1001.92 1002.52 1003.23 1004.24 1005.34 1006.40 1007.46 1008.80 1009.44 1010.48 1011.38 1011.99 1012.64 1013.42 1014.07 1014.63 1014.83 1015.16 1015.78 1016.13 1016.31 1016.01 1015.69 1016.33 1016.60 1017.01 1016.99 1017.04 1017.16 1017.20 1017.39 1017.64
1000.23 1001.40 1002.36 1003.02 1003.50 1004.63 1005.67 1006.78 1007.90 1008.89 1009.77 1010.48 1011.17 1011.86 1012.81 1013.36 1013.79 1014.32 1014.60 1015.11 1015.69 1015.99 1016.08 1016.04 1016.12 1016.53 1016.78 1016.81 1016.91 1016.91 1017.18 1017.30 1017.58
999.46 1000.62 1001.64 1002.55 1003.27 1003.91 1004.92 1006.05 1006.95 1008.20 1009.14 1009.90 1010.45 1011.16 1012.11 1012.76 1013.19 1013.61 1014.25 1014.57 1015.14 1015.55 1015.84 1015.90 1016.25 1016.48 1016.55 1016.74 1016.95 1017.12 1017.34 1017.22 1017.61
999.49 1000.15 1001.08 1002.05 1002.76 1003.64 1004.16 1005.27 1006.12 1007.25 1008.26 1009.01 1009.68 1010.47 1011.63 1012.11 1012.71 1013.14 1013.65 1014.14 1014.60 1015.27 1015.66 1015.60 1015.92 1016.23 1016.55 1016.78 1016.96 1017.24 1017.17 1017.47 1017.60
999.57 1000.23 1000.83 1001.33 1002.19 1002.99 1003.74 1004.66 1005.58 1006.44 1007.51 1008.31 1009.03 1010.28 1011.55 1011.89 1012.52 1012.62 1012.82 1013.57 1014.07 1014.65 1015.30 1015.45 1015.71 1016.11 1016.44 1016.76 1016.92 1017.27 1017.45 1017.67 1017.79
999.29 1000.02 1000.66 1001.28 1001.73 1002.55 1003.72 1004.51 1005.45 1006.21 1007.04 1007.84 1008.70 1009.81 1010.66 1011.41 1011.85 1011.89 1012.25 1013.12 1013.70 1014.08 1014.73 1015.28 1015.39 1015.87 1016.24 1016.83 1016.87 1017.28 1017.66 1017.81 1017.97
999.25 999.90 1000.45 1000.92 1001.46 1002.36 1003.63 1004.62 1005.35 1006.13 1006.70 1007.58 1008.44 1009.34 1009.96 1010.68 1011.34 1011.66 1012.29 1013.02 1013.55 1013.73 1014.07 1014.78 1015.28 1015.67 1016.05 1016.71 1016.97 1017.11 1017.69 1017.84 1018.00
998.94 999.29 999.98 1000.71 1001.51 1002.17 1003.18 1004.26 1005.29 1006.06 1006.54 1007.25 1008.14 1009.03 1009.56 1010.33 1011.03 1011.57 1012.06 1012.65 1013.22 1013.59 1014.07 1014.37 1014.79 1015.23 1015.91 1016.91 1016.84 1017.39 1017.79 1017.83 1018.14
998.44 998.85 999.30 1000.08 1001.10 1002.12 1002.88 1003.82 1004.91 1005.67 1006.46 1007.20 1007.99 1008.88 1009.44 1010.19 1010.88 1011.46 1012.01 1012.41 1012.94 1013.35 1013.81 1014.15 1014.76 1015.21 1015.73 1016.55 1017.03 1017.60 1017.99 1018.19 1018.10
998.37 998.67 999.22 999.81 1000.46 1001.62 1002.47 1003.43 1004.51 1004.96 1006.04 1007.06 1007.90 1008.65 1009.25 1010.02 1010.69 1011.22 1011.81 1012.31 1012.69 1013.00 1013.38 1014.04 1014.65 1015.13 1015.91 1016.42 1017.00 1017.68 1018.24 1018.34 1018.33
998.53 998.63 998.89 999.59 1000.01 1000.95 1002.20 1002.99 1003.80 1004.67 1005.72 1006.83 1007.65 1008.33 1009.26 1009.69 1010.46 1010.94 1011.56 1011.98 1012.31 1012.70 1012.98 1013.70 1014.40 1015.03 1015.78 1016.53 1017.16 1017.75 1018.10 1018.29 1018.34
998.67 998.40 998.52 999.22 999.53 1000.41 1001.72 1002.46 1003.35 1004.26 1005.31 1006.25 1006.95 1007.74 1008.73 1009.42 1009.81 1010.54 1011.19 1011.63 1012.03 1012.45 1012.91 1013.75 1014.33 1015.07 1015.71 1016.04 1016.47 1017.66 1017.92 1018.18 1017.89
998.94 998.88 998.91 999.25 999.56 1000.07 1001.28 1002.38 1003.28 1004.03 1004.92 1005.50 1006.26 1007.31 1008.19 1008.84 1009.55 1010.14 1010.85 1011.93 1012.06 1012.38 1013.12 1014.08 1014.10 1014.99 1015.19 1015.68 1016.01 1017.29 1017.77 1018.07 1017.94
999.49 999.28 999.35 999.63 999.82 1000.10 1001.13 1002.30 1003.13 1003.68 1004.14 1005.13 1006.05 1007.00 1007.90 1008.37 1008.98 1009.62 1010.29 1010.99 1011.44 1012.19 1012.82 1013.31 1013.80 1014.15 1014.63 1015.23 1015.89 1016.62 1017.47 1017.77 1017.91
999.86 999.70 999.70 999.87 1000.11 1000.52 1001.13 1002.18 1002.73 1003.04 1003.70 1004.57 1005.51 1006.58 1007.28 1007.86 1008.54 1009.15 1009.70 1010.55 1011.06 1011.75 1012.35 1012.38 1013.10 1013.51 1013.89 1014.38 1015.16 1015.71 1016.63 1017.22 1017.70
1000.78 1000.09 1000.11 1000.09 1000.31 1000.81 1001.47 1002.14 1002.66 1002.94 1003.67 1004.36 1005.09 1005.78 1006.59 1007.25 1007.80 1008.65 1009.16 1009.78 1010.23 1010.69 1011.44 1011.59 1011.86 1012.62 1012.96 1013.23 1014.00 1014.68 1015.57 1016.69 1017.45
1002.27 1001.52 1000.97 1000.77 1000.60 1000.81 1001.58 1002.32 1002.93 1003.18 1003.35 1003.87 1004.48 1005.14 1006.02 1006.51 1007.05 1007.78 1008.29 1008.55 1008.66 1009.25 1009.78 1010.30 1010.57 1010.87 1011.31 1012.30 1012.78 1013.21 1013.93 1014.79 1015.48
1003.53 1002.97 1002.30 1001.73 1001.55 1001.60 1001.58 1002.03 1002.60 1003.24 1003.43 1003.82 1003.87 1004.22 1005.03 1005.35 1005.60 1006.62 1007.14 1007.77 1008.14 1008.80 1009.29 1009.62 1010.11 1010.49 1010.72 1010.93 1011.92 1012.51 1013.58 1014.36 1014.82
1004.15 1003.75 1003.44 1003.25 1002.86 1002.35 1002.35 1002.66 1002.55 1003.66 1003.62 1003.51 1003.95 1003.54 1003.72 1004.33 1004.67 1004.96 1005.74 1006.40 1007.25 1007.83 1009.46 1009.88 1010.05 1010.35 1010.76 1011.09 1011.76 1012.46 1013.17 1013.87 1014.72
Wind_Speed
2 7 12 16 19 18 19 22 19 18 19 18 18 17 16 14 15 10 9 10 8 9 8 8 7 8 7 9 9 8 6 7 4
5 7 11 15 17 17 17 18 19 19 18 18 18 18 15 14 13 14 11 12 10 6 9 6 6 7 8 8 8 7 7 5 5
5 9 11 13 16 17 17 18 18 18 17 18 17 16 14 13 14 14 12 10 11 11 9 8 7 6 7 9 7 7 7 5 5
3 9 12 13 13 15 17 17 17 17 17 17 17 16 15 14 13 14 12 11 11 11 10 9 8 7 8 7 7 4 7 4 6
6 5 10 12 14 15 16 17 17 17 17 17 16 15 13 14 12 12 13 13 13 10 10 10 8 8 8 7 7 6 6 7 6
5 6 10 13 14 15 15 17 16 17 17 16 16 14 14 13 13 13 13 13 13 13 11 11 10 9 7 6 6 6 6 7 6
5 7 9 10 13 14 14 14 15 14 15 15 14 15 15 14 14 14 13 12 11 13 11 12 11 10 8 6 7 8 8 7 6
4 7 10 10 12 14 14 14 15 15 15 15 15 15 15 14 12 12 10 10 10 12 12 10 11 10 9 8 8 7 9 7 7
6 9 12 11 11 15 16 16 15 15 15 16 15 15 14 12 12 11 11 12 11 11 10 11 10 10 10 7 6 10 4 6 7
8 8 11 13 14 14 15 16 16 16 15 15 15 14 13 13 13 13 12 12 11 11 11 10 10 10 10 10 6 10 9 5 7
11 9 10 12 13 14 16 16 17 16 16 15 15 15 14 14 14 14 13 12 12 12 10 9 9 10 9 9 7 12 11 7 6
10 11 8 11 13 14 15 18 18 16 17 16 16 15 10 13 14 14 14 13 13 11 10 10 10 9 10 8 9 12 12 10 9
14 7 7 10 12 14 17 18 18 18 18 17 17 16 16 14 13 14 14 14 13 11 9 8 7 7 7 10 8 12 13 10 6
10 6 4 7 10 13 15 16 17 18 17 18 17 16 15 15 15 15 14 10 12 10 9 7 8 9 10 10 11 13 14 12 8
9 6 3 8 10 13 14 17 17 17 18 16 15 16 15 15 15 13 13 14 13 12 11 12 10 11 9 8 10 10 14 15 14
10 6 4 6 8 11 13 16 17 18 16 17 17 17 16 16 15 13 14 14 13 11 9 9 10 9 9 9 9 10 15 16 14
12 9 5 6 8 10 12 14 16 14 14 16 16 17 16 15 15 14 13 13 12 12 12 11 11 11 11 9 10 10 11 12 12
12 10 8 6 7 8 10 10 11 12 13 16 16 15 14 15 13 15 14 13 13 13 12 13 11 11 10 9 11 12 13 14 14
11 11 12 8 6 3 5 10 10 10 12 14 16 16 14 14 14 14 13 12 12 4 6 13 11 6 10 10 3 13 16 15 11
8 9 12 12 9 5 5 5 7 5 13 12 14 14 15 13 13 14 14 13 13 12 6 2 7 9 9 9 2 14 16 17 12
Wind_Direction
188 207 192 193 190 192 190 194 190 190 189 195 194 197 203 200 209 209 214 219 218 232 218 210 201 185 202 220 215 223 221 223 226
182 179 190 184 184 187 186 186 191 192 191 196 196 193 197 202 203 217 208 212 221 223 228 201 198 208 194 210 210 209 211 233 196
196 175 182 192 186 187 186 189 187 191 192 198 196 193 194 200 202 208 212 206 211 211 221 216 198 208 209 204 212 208 219 214 165
270 191 185 186 193 187 187 187 184 189 193 198 194 196 190 199 204 201 210 210 210 212 221 196 200 205 202 200 195 199 214 211 151
314 197 193 195 190 193 186 185 188 185 195 197 197 188 188 199 199 208 198 211 209 202 215 197 202 190 193 185 181 186 196 193 152
275 228 202 192 194 192 194 187 189 184 189 198 190 175 184 193 195 202 209 205 210 195 203 208 198 195 197 187 171 186 186 179 164
249 205 190 214 201 195 191 185 187 188 189 188 189 181 184 188 198 205 205 203 203 202 197 203 203 203 192 189 181 174 179 174 156
275 208 200 194 197 186 184 186 184 187 184 185 184 187 187 186 196 201 194 198 202 200 201 200 190 193 184 169 179 174 179 169 163
272 216 212 210 196 185 183 184 187 185 185 180 184 183 188 178 189 185 194 187 193 198 195 191 180 189 171 158 195 120 145 173 149
308 252 213 199 199 195 184 182 183 182 185 179 177 180 180 178 181 183 188 185 189 189 192 170 182 179 167 163 169 145 156 188 154
321 274 230 204 193 192 186 182 182 173 176 175 175 178 180 179 180 182 181 183 185 183 186 170 179 170 168 168 161 161 163 171 154
331 291 232 209 194 187 175 185 173 172 168 172 177 176 168 173 181 177 180 184 185 182 184 172 177 176 165 171 144 163 163 184 169
325 289 232 211 205 182 182 181 169 169 172 177 179 173 182 180 175 177 183 187 182 182 188 158 195 169 188 173 162 170 172 198 189
316 309 241 211 190 183 179 175 175 173 176 186 179 173 177 175 172 175 179 168 189 180 160 178 193 186 183 185 189 178 179 197 199
328 313 217 205 175 170 172 176 181 181 185 179 174 172 175 172 171 181 174 182 183 189 172 190 190 192 189 190 188 175 191 193 234
301 306 259 224 176 173 177 184 193 191 182 173 171 175 181 176 175 184 171 184 187 186 185 196 194 194 199 195 190 191 172 194 217
332 316 275 240 207 188 191 193 204 209 181 177 177 180 183 181 178 177 180 186 188 194 187 206 194 190 208 199 191 200 184 197 206
348 332 315 310 253 206 197 195 204 213 183 182 182 182 190 187 188 187 185 201 198 201 198 199 203 209 203 198 202 204 192 187 192
3 1 350 339 302 265 223 177 186 214 206 192 195 185 191 196 190 183 195 193 206 191 228 203 206 216 225 205 152 158 174 186 197
5 17 22 16 3 354 172 188 115 324 238 202 216 203 193 195 200 193 196 198 193 202 184 108 262 221 224 242 328 160 176 181 184